Location: Albany
(35.0170°S, 117.8920°E)
Time: 00:46:05
(UTC+08:00)

S-56A Canister/Altair - Pass Details

Date: 26 June 2021
Orbit: 632 x 2501 km, 38.9° (Epoch: 24 July)

Event Time Altitude Azimuth Distance (km) Brightness Sun altitude
Rises 20:12:48 0° 248° (WSW) 6,196 12.9 -37.4°
Reaches altitude 10° 20:17:02 10° 251° (WSW) 5,161 12.3 -38.3°
Maximum altitude 20:31:15 55° 322° (NW) 2,509 10.0 -41.2°
Enters shadow 20:34:24 47° 2° (N) 2,575 9.9 -41.8°
